Location: Newark
(50.0306°N, 2.3272°E)
Time: 16:24:34
(UTC+00:00)

N. Korean satellite - Visible Passes

Search period start: 20 November 2019 00:00
Search period end: 30 November 2019 00:00
Orbit: 456 x 506 km, 97.2° (Epoch: 20 November)

Date Brightness Start Highest point End Pass type
(mag) Time Alt. Az. Time Alt. Az. Time Alt. Az.
20 Nov 7.1 05:42:32 10° NNE 05:46:15 64° ESE 05:49:53 10° S visible
20 Nov 9.9 17:56:56 10° SW 17:59:17 16° W 18:01:38 10° NW visible
21 Nov 8.5 05:17:22 10° NNE 05:20:46 33° E 05:24:06 10° SSE visible
21 Nov 8.9 17:30:27 10° SSW 17:33:41 29° W 17:36:58 10° NNW visible
22 Nov 9.6 04:52:35 10° NE 04:55:11 18° E 04:57:45 10° SE visible
22 Nov 7.0 06:25:16 10° N 06:28:47 41° WNW 06:32:14 10° SW visible
22 Nov 7.5 17:04:33 10° S 17:08:10 55° W 17:11:51 10° NNW visible
23 Nov 6.5 05:59:43 10° N 06:03:27 81° WNW 06:07:06 10° SSW visible
23 Nov 6.6 16:39:05 10° SSE 16:42:46 75° ENE 16:46:30 10° N visible
23 Nov 10.3 18:15:50 10° W 18:16:40 11° W 18:17:29 10° WNW visible
24 Nov 7.5 05:34:24 10° NNE 05:38:02 51° E 05:41:35 10° S visible
24 Nov 9.6 17:48:16 10° SW 17:51:00 19° W 17:53:45 10° NW visible
25 Nov 8.9 05:09:20 10° NE 05:12:30 27° E 05:15:38 10° SSE visible
25 Nov 8.5 17:22:01 10° SSW 17:25:25 35° W 17:28:53 10° NNW visible
26 Nov 9.9 04:44:44 10° NE 04:46:53 15° E 04:49:01 10° SE visible
26 Nov 6.8 06:17:00 10° N 06:20:35 50° WNW 06:24:06 10° SSW visible
26 Nov 7.0 16:56:16 10° S 16:59:56 69° WSW 17:03:41 10° NNW visible
27 Nov 6.6 05:51:31 10° NNE 05:55:13 82° ESE 05:58:50 10° SSW visible
27 Nov 6.7 16:30:54 10° SSE 16:34:33 61° ENE 16:38:14 10° N visible
27 Nov 10.1 18:06:33 10° WSW 18:08:20 13° W 18:10:07 10° WNW visible
28 Nov 8.0 05:26:15 10° NNE 05:29:45 41° E 05:33:10 10° S visible
28 Nov 9.3 17:39:40 10° SSW 17:42:41 23° W 17:45:43 10° NW visible
29 Nov 9.2 05:01:16 10° NE 05:04:11 22° E 05:07:02 10° SE visible
29 Nov 7.3 06:34:21 10° N 06:37:39 32° WNW 06:40:54 10° SW visible
29 Nov 8.0 17:13:35 10° S 17:17:08 43° W 17:20:43 10° NNW visible
